Date String (YYYY-MM-DD hh:mm:ss) UTC,Instrument flags,Ambient pressure (hPa),Sample flow (lpm),Bypass flow (lpm),Sample temperature (°C),Ambient temperature (°C),ASC tube jacket temperature (°C),LED temperature (°C),Box temperature (°C),Sample RH (%),Span deviation,Mass concentration (μg/m³),Mass concentration (μg/m³),Mass concentration (μg/m³)
DateTimeUTC,F1_M11,P_M11,Q1_M11,Q2_M11,T1_M11,T2_M11,T3_M11,T4_M11,T5_M11,U1_M11,ZSPAN_M11,X0_M11,X2_M11,X1_M11
2021-12-04 19:00:00,,0825.3,5.01,0.00,27.2,26.6,00.0,36.1,29.1,14.1,0000.0,0020.45,0005.99,0004.79
2021-12-04 19:01:00,,0825.2,4.99,0.00,27.3,26.6,00.0,36.1,29.1,13.9,0000.0,0022.10,0005.97,0004.77
2021-12-04 19:02:00,,0825.2,5.01,0.00,27.3,26.6,00.0,36.1,29.1,13.8,0000.0,0022.40,0005.94,0004.76
2021-12-04 19:03:00,,0825.1,4.98,0.00,27.3,26.6,00.0,36.1,29.2,13.7,0000.0,0022.97,0005.95,0004.75
2021-12-04 19:04:00,,0825.0,5.01,0.00,27.3,26.6,00.0,36.2,29.2,13.6,0000.0,0022.44,0005.91,0004.73
2021-12-04 19:05:00,,0824.9,5.00,0.00,27.3,26.6,00.0,36.2,29.2,13.5,0000.0,0021.51,0005.92,0004.72
2021-12-04 19:06:00,,0825.0,5.00,0.00,27.3,26.6,00.0,36.2,29.2,13.6,0000.0,0020.70,0005.99,0004.70
2021-12-04 19:07:00,,0825.0,5.00,0.00,27.3,26.6,00.0,36.2,29.3,13.7,0000.0,0020.24,0005.99,0004.67
2021-12-04 19:08:00,,0825.1,4.99,0.00,27.4,26.6,00.0,36.2,29.2,13.6,0000.0,0020.75,0005.97,0004.65
2021-12-04 19:09:00,,0825.0,5.01,0.00,27.4,26.7,00.0,36.2,29.2,13.7,0000.0,0020.42,0006.00,0004.63
2021-12-04 19:10:00,,0825.0,4.99,0.00,27.4,26.7,00.0,36.3,29.2,13.5,0000.0,0020.17,0005.97,0004.58
2021-12-04 19:11:00,,0824.9,5.00,0.00,27.4,26.7,00.0,36.3,29.3,13.4,0000.0,0019.49,0005.93,0004.52
2021-12-04 19:12:00,,0824.9,5.02,0.00,27.4,26.7,00.0,36.3,29.3,13.4,0000.0,0018.57,0005.92,0004.46
2021-12-04 19:13:00,,0824.9,4.98,0.00,27.4,26.7,00.0,36.3,29.3,13.3,0000.0,0018.84,0005.87,0004.42
2021-12-04 19:14:00,,0824.9,5.01,0.00,27.5,26.8,00.0,36.3,29.3,13.3,0003.0,0019.53,0005.82,0004.38
2021-12-04 19:15:00,,0824.9,4.98,0.00,27.5,26.8,00.0,36.3,29.3,13.3,0000.5,0019.77,0005.77,0004.33
2021-12-04 19:16:00,,0824.8,5.02,0.00,27.5,26.8,00.0,36.4,29.4,13.5,0001.5,0020.13,0005.79,0004.32
2021-12-04 19:17:00,,0824.8,4.98,0.00,27.5,26.8,00.0,36.4,29.4,13.5,0001.9,0019.90,0005.74,0004.32
2021-12-04 19:18:00,,0824.7,5.01,0.00,27.5,26.9,00.0,36.4,29.4,13.4,0002.7,0019.93,0005.75,0004.31
2021-12-04 19:19:00,,0824.7,4.99,0.00,27.6,26.9,00.0,36.4,29.4,13.4,0000.8,0018.58,0005.76,0004.30
2021-12-04 19:20:00,,0824.7,5.00,0.00,27.6,26.9,00.0,36.4,29.4,13.3,0002.5,0018.67,0005.72,0004.31
2021-12-04 19:21:00,,0824.7,5.01,0.00,27.6,26.9,00.0,36.5,29.5,13.2,0000.0,0019.21,0005.68,0004.29
2021-12-04 19:22:00,,0824.9,5.01,0.00,27.6,26.9,00.0,36.5,29.5,13.2,0001.7,0019.26,0005.71,0004.29
2021-12-04 19:23:00,,0824.7,5.00,0.00,27.7,27.0,00.0,36.5,29.5,13.2,0002.5,0018.97,0005.69,0004.30
2021-12-04 19:24:00,,0824.6,5.00,0.00,27.7,27.0,00.0,36.5,29.5,13.1,0001.6,0018.75,0005.68,0004.31
2021-12-04 19:25:00,,0824.6,4.99,0.00,27.7,27.0,00.0,36.6,29.6,13.2,0001.2,0018.25,0005.71,0004.31
2021-12-04 19:26:00,,0824.8,5.00,0.00,27.7,27.1,00.0,36.6,29.6,13.2,0001.7,0018.43,0005.73,0004.31
2021-12-04 19:27:00,,0824.8,5.00,0.00,27.7,27.1,00.0,36.6,29.6,13.1,0002.1,0017.79,0005.67,0004.28
2021-12-04 19:28:00,,0824.6,5.00,0.00,27.8,27.1,00.0,36.6,29.6,12.7,0001.9,0016.75,0005.57,0004.21
2021-12-04 19:29:00,,0824.7,5.01,0.00,27.8,27.1,00.0,36.6,29.7,12.7,0002.9,0016.00,0005.45,0004.15
2021-12-04 19:30:00,,0824.7,4.99,0.00,27.8,27.1,00.0,36.7,29.7,12.7,0002.9,0015.78,0005.32,0004.07
2021-12-04 19:31:00,,0824.9,5.02,0.00,27.8,27.1,00.0,36.7,29.7,12.8,0002.2,0015.19,0005.26,0003.99
2021-12-04 19:32:00,,0824.6,4.99,0.00,27.8,27.2,00.0,36.7,29.7,12.7,0002.6,0014.47,0005.19,0003.93
2021-12-04 19:33:00,,0824.5,5.01,0.00,27.8,27.2,00.0,36.7,29.7,12.7,0003.2,0014.49,0005.12,0003.87
2021-12-04 19:34:00,,0824.5,4.99,0.00,27.9,27.2,00.0,36.7,29.7,12.5,0001.1,0014.25,0004.96,0003.79
2021-12-04 19:35:00,,0824.7,5.00,0.00,27.9,27.2,00.0,36.8,29.8,12.6,0000.0,0013.46,0004.85,0003.73
2021-12-04 19:36:00,,0824.7,5.01,0.00,27.9,27.3,00.0,36.8,29.8,12.5,0000.0,0013.29,0004.70,0003.66
2021-12-04 19:37:00,,0824.6,5.00,0.00,27.9,27.3,00.0,36.8,29.8,12.5,0000.0,0012.74,0004.58,0003.61
2021-12-04 19:38:00,,0824.5,4.99,0.00,28.0,27.3,00.0,36.8,29.8,12.5,0000.0,0012.83,0004.54,0003.57
2021-12-04 19:39:00,,0824.5,5.00,0.00,28.0,27.3,00.0,36.8,29.8,12.4,0000.0,0013.89,0004.53,0003.54
2021-12-04 19:40:00,,0824.4,5.01,0.00,28.0,27.3,00.0,36.8,29.9,12.5,0000.0,0014.65,0004.52,0003.53
2021-12-04 19:41:00,,0824.4,5.01,0.00,28.0,27.3,00.0,36.9,29.9,12.5,0000.0,0015.54,0004.51,0003.52
2021-12-04 19:42:00,,0824.5,4.99,0.00,28.0,27.3,00.0,36.9,29.9,12.4,0000.0,0015.51,0004.47,0003.51
2021-12-04 19:43:00,,0824.4,4.99,0.00,28.1,27.4,00.0,36.9,29.9,12.3,0000.0,0016.09,0004.49,0003.50
2021-12-04 19:44:00,,0824.4,5.01,0.00,28.1,27.4,00.0,36.9,29.9,12.3,0000.0,0016.81,0004.50,0003.51
2021-12-04 19:45:00,,0824.4,5.00,0.00,28.1,27.4,00.0,36.9,29.9,12.3,0000.0,0017.40,0004.54,0003.52
2021-12-04 19:46:00,,0824.4,5.00,0.00,28.1,27.4,00.0,37.0,30.0,12.2,0000.0,0017.57,0004.56,0003.52
2021-12-04 19:47:00,,0824.4,5.02,0.00,28.1,27.4,00.0,37.0,30.0,12.1,0000.0,0017.09,0004.61,0003.53
2021-12-04 19:48:00,,0824.3,4.99,0.00,28.1,27.4,00.0,37.0,30.0,12.0,0000.0,0016.96,0004.64,0003.52
2021-12-04 19:49:00,,0824.3,4.99,0.00,28.2,27.4,00.0,37.0,30.0,12.1,0000.0,0016.95,0004.63,0003.51
2021-12-04 19:50:00,,0824.3,5.01,0.00,28.2,27.4,00.0,37.0,30.0,12.0,0000.0,0016.02,0004.60,0003.51
2021-12-04 19:51:00,,0824.3,5.00,0.00,28.2,27.4,00.0,37.0,30.1,12.0,0000.0,0015.11,0004.55,0003.49
2021-12-04 19:52:00,,0824.3,4.99,0.00,28.2,27.4,00.0,37.1,30.0,12.0,0000.0,0014.60,0004.54,0003.47
2021-12-04 19:53:00,,0824.2,4.99,0.00,28.2,27.4,00.0,37.1,30.1,12.0,0000.0,0014.55,0004.55,0003.47
2021-12-04 19:54:00,,0824.1,5.00,0.00,28.2,27.4,00.0,37.1,30.1,12.0,0000.0,0013.92,0004.53,0003.47
2021-12-04 19:55:00,,0824.1,4.99,0.00,28.3,27.4,00.0,37.1,30.1,11.9,0000.0,0013.69,0004.50,0003.45
2021-12-04 19:56:00,,0824.1,5.02,0.00,28.2,27.4,00.0,37.1,30.1,12.0,0000.0,0013.45,0004.51,0003.43
2021-12-04 19:57:00,,0824.1,4.99,0.00,28.3,27.4,00.0,37.1,30.1,12.0,0000.0,0013.93,0004.51,0003.43
2021-12-04 19:58:00,,0824.1,4.99,0.00,28.3,27.5,00.0,37.1,30.1,11.9,0000.0,0013.69,0004.48,0003.41
2021-12-04 19:59:00,,0824.1,5.00,0.00,28.3,27.5,00.0,37.1,30.0,11.8,0000.0,0013.13,0004.49,0003.40
